SCP
0 0 0 0 0 0 0 0 0 0 0 0 0 0 0 0 -0 -0 0 0 0 0 0 0 0 0 0 0 0 0 -0 -0 -0 0 0 -0 -0 -0 -0 -0 -0 -0 -0
-0 0 0 -0 0 0 -0 -0 -0 0 0 0 0 0 0 0 0 0 0 0 0 0 0 0 0 0 0 0 0 -0 0 0 -0 0 -0 -0 -0 -0 -0 -0 -0 -0 -0
-0 0 0 0 0 0 0 -0 0 0 0 0 0 0 0 0 0 0 0 0 0 0 0 0 0 0 0 -0 -0 -0 -0 0 0 -0 -0 -0 0 -0 -0 -0 -0 -0 -0
-0 0 0 0 0 0 0 0 0 0 0 0 0 0 0 0 0 0 0 0 0 0 0 0 0 0 -0 -0 -0 0 0 0 -0 -0 0 -0 0 -0 -0 -0 -0 -0 0
-0 -0 0 0 0 0 0 0 0 0 0 0 0 0 0 0 0 0 0 0 0 0 0 0 0 -0 0 0 0 0 -0 -0 -0 -0 0 0 -0 0 0 0 0 -0 -0
-0 -0 0 0 0 0 0 0 0 0 -0 0 0 0 0 0 0 0 0 0 0 0 0 0 0 0 0 0 0 0 -0 -0 -0 0 0 0 0 0 0 0 -0 -0 -0
-0 0 0 -0 -0 -0 -0 -0 0 0 0 0 0 0 0 0 0 0 0 0 0 0 0 0 0 0 0 0 0 0 -0 -0 0 0 0 0 0 0 0 0 0 0 0
-0 0 0 0 -0 -0 -0 0 0 0 0 0 0 0 0 0 0 0 0 0 0 0 0 0 0 0 0 0 0 0 0 0 0 0 0 0 0 0 0 0 0 0 0
-0 -0 0 0 0 0 0 -0 -0 -0 0 0 0 0 0 0 0 0 0 0 0 0 0 0 0 0 0 0 0 0 0 0 0 0 0 0 0 0 0 0 0 0 0
-0 0 0 0 0 -0 -0 -0 -0 -0 0 0 0 0 0 0 0 0 0 0 0 0 0 0 0 0 0 0 0 0 0 0 0 0 0 0 0 0 0 0 0 0 0
0 0 0 0 0 0 0 -0 -0 -0 0 0 0 0 0 0 0 0 0 0 0 0 0 0 0 0 0 0 0 0 0 0 0 0 0 0 0 0 0 0 0 0 0
-0 -0 0 -0 -0 0 0 0 0 0 0 0 0 0 0 0 0 0 0 0 0 0 1 1 1 1 1 1 1 1 0 0 0 0 0 0 0 0 0 1 1 1 1
-0 -0 -0 -0 -0 0 -0 0 0 0 0 0 0 0 0 0 0 0 0 0 0 0 1 0 0 1 1 1 1 0 0 0 0 0 0 1 1 1 1 0 1 1 1
-0 -0 -0 -0 -0 -0 -0 0 0 0 0 0 0 0 0 0 0 0 0 0 0 0 0 0 0 1 1 1 1 0 0 0 0 0 0 1 1 1 1 1 1 1 1
-0 -0 -0 -0 -0 -0 -0 0 0 0 0 0 0 0 0 0 0 0 0 0 0 0 0 0 0 0 0 0 0 1 0 0 0 0 0 1 1 1 1 1 1 1 1
-0 -0 -0 -0 -0 -0 -0 -0 0 0 0 0 0 0 0 0 0 0 0 0 0 0 0 0 0 0 0 0 0 0 0 0 0 0 0 0 1 1 1 0 0 0 1
-0 -0 -0 -0 -0 -0 -0 0 0 0 0 0 0 0 0 0 0 0 0 0 0 0 0 0 0 0 0 0 0 0 0 0 0 0 0 0 0 0 0 0 0 0 0
-0 -0 -0 -0 -0 -0 -0 -0 0 0 0 0 0 0 0 0 0 0 0 0 0 0 0 0 0 0 0 0 0 0 0 0 0 0 0 0 0 0 0 0 0 0 0
0 -0 -0 -0 -0 -0 -0 0 0 0 0 0 0 0 0 0 0 0 0 0 0 0 0 0 0 0 0 0 0 0 0 0 0 0 0 0 0 0 0 0 0 0 0
0 0 -0 -0 -0 -0 -0 -0 0 0 0 0 0 0 0 0 0 0 0 0 0 0 0 0 0 0 0 0 0 0 0 0 0 0 0 0 0 0 0 0 0 0 0
0 0 -0 0 0 0 0 0 -0 -0 0 0 0 0 0 0 0 0 0 0 0 0 0 0 0 0 0 0 0 0 0 0 0 0 0 0 0 0 0 0 0 0 0
0 0 -0 0 0 -0 0 0 0 0 0 0 0 0 0 0 0 0 0 0 0 0 0 0 0 0 0 0 0 0 0 0 0 0 0 -0 -0 0 0 0 0 0 0
0 0 0 0 0 0 0 0 0 0 0 0 0 0 0 0 -0 0 0 0 0 0 0 0 0 0 0 0 0 0 -0 -0 -0 -0 0 0 0 0 0 0 0 0 0
-0 0 0 0 0 0 0 0 0 0 0 0 0 0 0 0 0 0 0 0 0 0 0 0 0 0 0 0 0 0 0 -0 -0 0 0 0 0 0 0 0 0 0 0
-0 0 0 0 0 0 0 0 0 0 0 0 -0 0 0 0 0 0 0 0 0 0 0 0 0 0 0 0 0 0 0 0 -0 0 0 0 0 0 0 0 -0 0 0
-0 0 0 0 0 0 0 0 0 0 -0 0 -0 -0 0 0 0 0 0 0 0 0 0 0 0 0 0 0 0 0 0 -0 -0 0 0 0 0 0 0 -0 0 0 0
Wind_Speed_500mb
30 25 22 20 20 21 23 25 26 27 27 27 33 33 31 30 28 26 29 30 27 26 26 26 24 25 24 24 24 24 25 26 28 32 32 30 29 26 25 27 25 23 22
32 29 26 21 22 23 24 27 27 26 28 29 31 29 29 28 27 27 26 26 24 22 25 27 27 28 27 26 24 23 28 31 32 32 27 26 24 25 27 25 25 23 22
35 33 28 25 24 23 26 27 28 28 30 31 29 29 26 27 28 26 26 24 25 27 29 29 28 33 30 28 28 27 27 30 26 25 25 23 23 24 25 22 21 20 19
36 34 29 25 25 25 27 26 27 28 29 28 30 28 26 26 26 25 24 25 26 30 29 30 30 31 31 33 28 30 29 26 25 24 22 22 22 24 22 20 20 19 18
38 34 31 27 25 26 27 26 28 28 28 30 28 25 25 24 24 25 25 25 27 31 35 29 34 34 30 30 32 31 28 26 24 22 22 22 24 24 22 21 19 18 18
38 35 32 28 28 28 29 26 28 28 28 30 26 25 24 23 25 23 23 25 27 26 29 31 33 33 33 32 31 29 30 28 25 23 23 23 22 21 20 19 17 14 16
39 34 29 27 29 29 28 25 27 27 25 27 26 22 22 24 26 23 22 25 27 27 31 32 34 34 38 38 35 29 28 25 19 19 20 21 23 19 17 13 12 13 13
35 32 29 25 25 29 29 27 31 31 26 22 19 24 24 25 22 22 23 24 29 29 30 34 35 35 35 38 37 32 26 22 17 14 15 16 15 12 13 16 17 18 17
33 30 29 26 25 27 26 27 28 27 26 24 24 25 26 25 27 27 26 26 30 31 30 29 30 28 28 31 33 32 26 22 18 16 16 14 15 16 19 22 22 23 23
30 26 26 29 27 28 28 28 28 27 27 28 28 28 29 30 31 30 29 30 32 29 26 23 22 24 25 25 25 28 26 22 20 18 18 19 20 22 24 25 25 24 23
29 25 24 25 26 28 27 26 29 29 32 32 30 33 35 36 37 37 37 34 30 26 20 16 17 18 20 23 22 27 24 22 21 20 21 22 24 25 25 26 26 25 24
33 30 26 26 27 29 28 28 29 31 27 28 30 38 40 39 37 37 33 30 27 23 20 14 11 14 18 22 24 24 25 23 22 23 23 24 24 26 28 29 29 28 28
32 32 31 31 30 29 29 26 30 32 31 31 35 40 38 32 27 26 25 21 18 15 10 6 6 9 15 21 27 27 24 25 26 25 26 27 28 29 29 30 29 28 28
37 33 34 33 30 31 29 27 33 35 34 34 37 36 28 25 24 24 21 22 20 22 21 20 16 11 17 25 31 29 28 28 28 30 31 32 32 30 29 29 28 27 26
36 33 35 34 33 34 32 35 37 33 36 35 35 30 24 22 19 15 20 21 23 22 17 16 19 19 27 30 31 34 32 30 32 33 34 32 31 29 30 29 28 28 28
38 37 35 35 33 34 36 35 29 29 33 35 30 22 14 15 14 14 22 19 15 16 18 16 11 20 21 29 29 30 32 33 33 32 31 31 29 27 23 22 24 26 27
40 41 40 39 34 34 30 28 28 30 30 28 27 17 16 18 17 24 23 16 9 9 11 12 13 13 17 19 18 20 27 28 27 29 26 25 24 23 20 20 21 24 25
39 42 40 37 34 32 32 31 28 27 28 26 19 12 10 19 12 17 14 14 11 9 8 9 12 14 14 18 17 16 12 16 17 18 20 17 14 14 12 12 18 21 20
40 41 43 39 35 30 26 33 28 26 24 18 14 15 16 12 18 19 16 13 14 13 13 14 16 17 18 16 14 15 16 16 13 10 9 6 8 9 10 12 13 13 15
41 41 41 37 33 29 29 36 31 28 21 18 12 22 14 14 14 12 11 12 13 13 11 12 14 17 13 12 9 10 10 7 1 4 3 4 7 6 6 9 17 16 14
46 47 43 40 35 32 33 37 37 33 27 22 18 18 16 14 11 12 11 9 7 6 7 9 13 13 10 11 10 8 5 5 7 8 8 9 11 16 14 13 16 16 15
49 50 49 45 38 33 33 37 32 27 24 24 22 21 16 13 11 14 12 10 4 3 7 7 16 6 6 7 6 5 5 5 7 10 12 16 13 14 13 13 17 19 16
54 54 52 53 46 37 37 37 30 29 25 26 24 22 19 15 12 20 17 13 8 6 5 5 5 3 4 5 5 5 7 8 12 13 10 9 13 13 10 11 13 20 17
56 53 50 53 54 44 38 35 35 34 34 28 23 19 17 20 17 19 14 15 8 7 8 5 3 4 6 4 9 10 11 13 8 9 14 8 11 10 16 25 22 14 6
57 57 49 48 56 50 42 39 36 41 34 27 27 21 19 18 21 19 18 12 11 10 13 11 4 4 5 6 5 6 10 7 11 11 18 12 17 5 22 28 21 17 13
60 58 54 54 55 51 49 40 38 37 35 31 33 28 21 21 22 20 19 15 15 16 15 14 10 5 2 2 5 7 7 10 9 9 15 17 12 5 18 27 19 17 15
Wind_Direction_500mb
153 156 139 138 129 117 116 123 121 109 110 109 108 105 105 105 103 104 101 103 110 116 116 109 107 104 100 94 92 93 98 104 106 102 94 94 91 86 88 85 83 78 81
149 141 134 141 129 125 126 127 130 123 113 113 111 109 107 102 103 98 99 103 105 110 107 103 100 98 96 92 95 101 103 97 99 102 98 92 84 86 84 81 77 79 80
145 139 141 140 133 126 126 123 128 125 122 119 112 111 107 104 101 98 99 100 103 104 101 100 95 94 84 84 90 98 108 104 110 111 102 94 84 87 87 83 83 80 76
142 138 136 131 128 124 121 121 123 123 122 120 117 109 109 104 103 99 98 96 99 95 91 96 95 89 87 85 89 94 103 108 107 104 101 92 91 89 84 83 77 73 74
141 135 131 131 131 126 127 124 123 126 122 120 120 109 108 101 107 101 101 99 104 96 96 89 95 94 87 92 85 90 93 96 102 101 98 93 89 84 77 75 72 70 68
141 136 131 132 132 128 129 126 130 129 124 124 123 114 111 102 100 102 105 100 112 102 96 92 90 81 74 78 83 87 86 87 96 100 98 95 86 76 75 70 71 55 62
143 136 134 131 135 131 130 129 138 130 124 127 117 110 106 107 100 99 105 110 114 113 93 86 86 85 77 74 73 77 80 79 82 89 90 91 84 83 79 76 60 45 59
143 140 136 134 131 134 133 131 129 132 127 121 114 112 105 103 107 115 108 109 114 109 99 93 87 83 76 71 69 70 75 74 76 84 86 86 85 70 63 61 59 57 57
152 149 148 144 140 139 138 137 134 128 123 122 115 110 114 112 106 104 107 111 113 111 103 96 87 75 69 64 64 66 70 74 75 74 74 82 81 72 68 67 66 63 60
158 160 157 158 150 147 146 143 139 133 125 120 115 111 108 103 99 99 105 111 117 118 111 93 79 68 58 50 52 59 66 70 72 72 73 75 77 76 74 73 70 66 62
167 168 169 165 155 149 140 147 143 136 126 117 112 110 106 101 97 95 100 109 114 111 103 90 77 65 43 38 41 50 63 70 72 76 77 79 79 81 79 74 69 64 60
169 166 167 164 156 156 147 149 146 136 132 127 121 120 114 108 99 96 101 107 113 112 103 93 76 54 40 33 40 51 61 72 79 81 84 83 82 79 75 73 70 66 59
165 166 163 163 162 159 151 150 148 145 143 137 133 127 120 112 105 107 103 108 113 111 109 87 58 44 43 50 55 64 70 78 81 84 85 82 78 76 75 73 68 65 60
166 168 166 162 161 158 155 149 148 144 146 142 139 132 120 109 106 102 101 109 102 101 101 96 82 65 67 69 64 69 79 84 89 88 86 84 79 77 74 71 68 62 55
163 162 162 158 156 157 156 148 144 144 150 149 148 138 123 118 111 97 116 106 113 102 96 89 83 82 79 82 74 73 78 82 85 85 82 80 81 81 81 75 66 56 47
161 155 154 152 156 159 154 153 152 151 157 155 157 147 135 130 114 122 128 119 117 99 101 86 95 77 82 91 88 80 74 68 75 79 83 86 90 89 83 79 70 63 51
163 156 151 147 153 157 161 162 154 155 162 165 160 149 141 133 119 129 133 137 122 86 97 73 76 90 82 94 94 82 80 73 70 76 84 93 99 93 82 71 67 58 49
174 171 164 164 156 153 161 165 162 156 160 166 166 168 147 140 126 140 135 120 108 106 87 78 82 87 93 102 98 79 70 74 82 85 98 99 85 82 68 53 46 46 32
184 177 172 167 168 170 168 168 163 169 170 175 168 156 150 144 136 132 116 111 104 103 91 74 108 123 114 96 90 85 102 109 105 99 91 66 21 4 20 30 23 11 15
192 184 178 176 180 175 173 174 170 171 181 165 172 166 146 141 138 127 129 119 107 96 86 75 119 124 113 94 106 124 135 144 219 308 345 4 354 353 17 15 10 355 347
198 190 184 182 181 177 177 178 180 181 182 177 174 177 171 162 162 175 159 134 121 84 52 38 144 130 110 120 139 151 182 252 275 291 306 316 333 341 311 329 355 349 349
201 198 192 191 190 182 181 173 172 175 186 188 189 187 183 170 167 194 173 167 149 118 49 55 135 114 91 122 154 218 280 271 296 307 314 312 302 315 311 312 321 329 356
200 198 197 198 197 196 192 182 182 185 180 190 184 180 172 185 199 186 185 182 181 173 162 124 134 35 62 44 324 255 285 283 305 306 319 342 322 323 3 5 8 353 7
199 196 198 204 201 202 202 203 193 189 186 184 177 170 178 187 191 189 189 188 187 217 203 156 110 60 44 2 342 308 283 282 276 307 301 293 309 329 346 323 307 349 22
199 199 198 202 203 204 202 201 199 199 198 191 194 194 201 205 195 191 197 209 212 222 209 212 201 97 59 49 20 342 271 278 285 304 301 300 298 19 29 28 35 76 94
204 203 203 203 205 208 206 207 211 207 202 210 210 209 214 211 207 200 202 222 225 228 225 221 229 235 33 51 27 351 339 289 296 307 308 323 333 81 55 52 67 76 49
Wind_Speed_850mb
30 25 22 20 20 21 23 25 26 27 27 27 33 33 31 30 28 26 29 30 27 26 26 26 24 25 24 24 24 24 25 26 28 32 32 30 29 26 25 27 25 23 22
32 29 26 21 22 23 24 27 27 26 28 29 31 29 29 28 27 27 26 26 24 22 25 27 27 28 27 26 24 23 28 31 32 32 27 26 24 25 27 25 25 23 22
35 33 28 25 24 23 26 27 28 28 30 31 29 29 26 27 28 26 26 24 25 27 29 29 28 33 30 28 28 27 27 30 26 25 25 23 23 24 25 22 21 20 19
36 34 29 25 25 25 27 26 27 28 29 28 30 28 26 26 26 25 24 25 26 30 29 30 30 31 31 33 28 30 29 26 25 24 22 22 22 24 22 20 20 19 18
38 34 31 27 25 26 27 26 28 28 28 30 28 25 25 24 24 25 25 25 27 31 35 29 34 34 30 30 32 31 28 26 24 22 22 22 24 24 22 21 19 18 18
38 35 32 28 28 28 29 26 28 28 28 30 26 25 24 23 25 23 23 25 27 26 29 31 33 33 33 32 31 29 30 28 25 23 23 23 22 21 20 19 17 14 16
39 34 29 27 29 29 28 25 27 27 25 27 26 22 22 24 26 23 22 25 27 27 31 32 34 34 38 38 35 29 28 25 19 19 20 21 23 19 17 13 12 13 13
35 32 29 25 25 29 29 27 31 31 26 22 19 24 24 25 22 22 23 24 29 29 30 34 35 35 35 38 37 32 26 22 17 14 15 16 15 12 13 16 17 18 17
33 30 29 26 25 27 26 27 28 27 26 24 24 25 26 25 27 27 26 26 30 31 30 29 30 28 28 31 33 32 26 22 18 16 16 14 15 16 19 22 22 23 23
30 26 26 29 27 28 28 28 28 27 27 28 28 28 29 30 31 30 29 30 32 29 26 23 22 24 25 25 25 28 26 22 20 18 18 19 20 22 24 25 25 24 23
29 25 24 25 26 28 27 26 29 29 32 32 30 33 35 36 37 37 37 34 30 26 20 16 17 18 20 23 22 27 24 22 21 20 21 22 24 25 25 26 26 25 24
33 30 26 26 27 29 28 28 29 31 27 28 30 38 40 39 37 37 33 30 27 23 20 14 11 14 18 22 24 24 25 23 22 23 23 24 24 26 28 29 29 28 28
32 32 31 31 30 29 29 26 30 32 31 31 35 40 38 32 27 26 25 21 18 15 10 6 6 9 15 21 27 27 24 25 26 25 26 27 28 29 29 30 29 28 28
37 33 34 33 30 31 29 27 33 35 34 34 37 36 28 25 24 24 21 22 20 22 21 20 16 11 17 25 31 29 28 28 28 30 31 32 32 30 29 29 28 27 26
36 33 35 34 33 34 32 35 37 33 36 35 35 30 24 22 19 15 20 21 23 22 17 16 19 19 27 30 31 34 32 30 32 33 34 32 31 29 30 29 28 28 28
38 37 35 35 33 34 36 35 29 29 33 35 30 22 14 15 14 14 22 19 15 16 18 16 11 20 21 29 29 30 32 33 33 32 31 31 29 27 23 22 24 26 27
40 41 40 39 34 34 30 28 28 30 30 28 27 17 16 18 17 24 23 16 9 9 11 12 13 13 17 19 18 20 27 28 27 29 26 25 24 23 20 20 21 24 25
39 42 40 37 34 32 32 31 28 27 28 26 19 12 10 19 12 17 14 14 11 9 8 9 12 14 14 18 17 16 12 16 17 18 20 17 14 14 12 12 18 21 20
40 41 43 39 35 30 26 33 28 26 24 18 14 15 16 12 18 19 16 13 14 13 13 14 16 17 18 16 14 15 16 16 13 10 9 6 8 9 10 12 13 13 15
41 41 41 37 33 29 29 36 31 28 21 18 12 22 14 14 14 12 11 12 13 13 11 12 14 17 13 12 9 10 10 7 1 4 3 4 7 6 6 9 17 16 14
46 47 43 40 35 32 33 37 37 33 27 22 18 18 16 14 11 12 11 9 7 6 7 9 13 13 10 11 10 8 5 5 7 8 8 9 11 16 14 13 16 16 15
49 50 49 45 38 33 33 37 32 27 24 24 22 21 16 13 11 14 12 10 4 3 7 7 16 6 6 7 6 5 5 5 7 10 12 16 13 14 13 13 17 19 16
54 54 52 53 46 37 37 37 30 29 25 26 24 22 19 15 12 20 17 13 8 6 5 5 5 3 4 5 5 5 7 8 12 13 10 9 13 13 10 11 13 20 17
56 53 50 53 54 44 38 35 35 34 34 28 23 19 17 20 17 19 14 15 8 7 8 5 3 4 6 4 9 10 11 13 8 9 14 8 11 10 16 25 22 14 6
57 57 49 48 56 50 42 39 36 41 34 27 27 21 19 18 21 19 18 12 11 10 13 11 4 4 5 6 5 6 10 7 11 11 18 12 17 5 22 28 21 17 13
60 58 54 54 55 51 49 40 38 37 35 31 33 28 21 21 22 20 19 15 15 16 15 14 10 5 2 2 5 7 7 10 9 9 15 17 12 5 18 27 19 17 15
Wind_Direction_850mb
153 156 139 138 129 117 116 123 121 109 110 109 108 105 105 105 103 104 101 103 110 116 116 109 107 104 100 94 92 93 98 104 106 102 94 94 91 86 88 85 83 78 81
149 141 134 141 129 125 126 127 130 123 113 113 111 109 107 102 103 98 99 103 105 110 107 103 100 98 96 92 95 101 103 97 99 102 98 92 84 86 84 81 77 79 80
145 139 141 140 133 126 126 123 128 125 122 119 112 111 107 104 101 98 99 100 103 104 101 100 95 94 84 84 90 98 108 104 110 111 102 94 84 87 87 83 83 80 76
142 138 136 131 128 124 121 121 123 123 122 120 117 109 109 104 103 99 98 96 99 95 91 96 95 89 87 85 89 94 103 108 107 104 101 92 91 89 84 83 77 73 74
141 135 131 131 131 126 127 124 123 126 122 120 120 109 108 101 107 101 101 99 104 96 96 89 95 94 87 92 85 90 93 96 102 101 98 93 89 84 77 75 72 70 68
141 136 131 132 132 128 129 126 130 129 124 124 123 114 111 102 100 102 105 100 112 102 96 92 90 81 74 78 83 87 86 87 96 100 98 95 86 76 75 70 71 55 62
143 136 134 131 135 131 130 129 138 130 124 127 117 110 106 107 100 99 105 110 114 113 93 86 86 85 77 74 73 77 80 79 82 89 90 91 84 83 79 76 60 45 59
143 140 136 134 131 134 133 131 129 132 127 121 114 112 105 103 107 115 108 109 114 109 99 93 87 83 76 71 69 70 75 74 76 84 86 86 85 70 63 61 59 57 57
152 149 148 144 140 139 138 137 134 128 123 122 115 110 114 112 106 104 107 111 113 111 103 96 87 75 69 64 64 66 70 74 75 74 74 82 81 72 68 67 66 63 60
158 160 157 158 150 147 146 143 139 133 125 120 115 111 108 103 99 99 105 111 117 118 111 93 79 68 58 50 52 59 66 70 72 72 73 75 77 76 74 73 70 66 62
167 168 169 165 155 149 140 147 143 136 126 117 112 110 106 101 97 95 100 109 114 111 103 90 77 65 43 38 41 50 63 70 72 76 77 79 79 81 79 74 69 64 60
169 166 167 164 156 156 147 149 146 136 132 127 121 120 114 108 99 96 101 107 113 112 103 93 76 54 40 33 40 51 61 72 79 81 84 83 82 79 75 73 70 66 59
165 166 163 163 162 159 151 150 148 145 143 137 133 127 120 112 105 107 103 108 113 111 109 87 58 44 43 50 55 64 70 78 81 84 85 82 78 76 75 73 68 65 60
166 168 166 162 161 158 155 149 148 144 146 142 139 132 120 109 106 102 101 109 102 101 101 96 82 65 67 69 64 69 79 84 89 88 86 84 79 77 74 71 68 62 55
163 162 162 158 156 157 156 148 144 144 150 149 148 138 123 118 111 97 116 106 113 102 96 89 83 82 79 82 74 73 78 82 85 85 82 80 81 81 81 75 66 56 47
161 155 154 152 156 159 154 153 152 151 157 155 157 147 135 130 114 122 128 119 117 99 101 86 95 77 82 91 88 80 74 68 75 79 83 86 90 89 83 79 70 63 51
163 156 151 147 153 157 161 162 154 155 162 165 160 149 141 133 119 129 133 137 122 86 97 73 76 90 82 94 94 82 80 73 70 76 84 93 99 93 82 71 67 58 49
174 171 164 164 156 153 161 165 162 156 160 166 166 168 147 140 126 140 135 120 108 106 87 78 82 87 93 102 98 79 70 74 82 85 98 99 85 82 68 53 46 46 32
184 177 172 167 168 170 168 168 163 169 170 175 168 156 150 144 136 132 116 111 104 103 91 74 108 123 114 96 90 85 102 109 105 99 91 66 21 4 20 30 23 11 15
192 184 178 176 180 175 173 174 170 171 181 165 172 166 146 141 138 127 129 119 107 96 86 75 119 124 113 94 106 124 135 144 219 308 345 4 354 353 17 15 10 355 347
198 190 184 182 181 177 177 178 180 181 182 177 174 177 171 162 162 175 159 134 121 84 52 38 144 130 110 120 139 151 182 252 275 291 306 316 333 341 311 329 355 349 349
201 198 192 191 190 182 181 173 172 175 186 188 189 187 183 170 167 194 173 167 149 118 49 55 135 114 91 122 154 218 280 271 296 307 314 312 302 315 311 312 321 329 356
200 198 197 198 197 196 192 182 182 185 180 190 184 180 172 185 199 186 185 182 181 173 162 124 134 35 62 44 324 255 285 283 305 306 319 342 322 323 3 5 8 353 7
199 196 198 204 201 202 202 203 193 189 186 184 177 170 178 187 191 189 189 188 187 217 203 156 110 60 44 2 342 308 283 282 276 307 301 293 309 329 346 323 307 349 22
199 199 198 202 203 204 202 201 199 199 198 191 194 194 201 205 195 191 197 209 212 222 209 212 201 97 59 49 20 342 271 278 285 304 301 300 298 19 29 28 35 76 94
204 203 203 203 205 208 206 207 211 207 202 210 210 209 214 211 207 200 202 222 225 228 225 221 229 235 33 51 27 351 339 289 296 307 308 323 333 81 55 52 67 76 49